Location: La Comballaz
(46.3780°N, 7.0817°E)
Time: 12:54:29
(UTC+00:00)

Iridium 4 Rocket - Pass Details

Date: 09 April 2020
Orbit: 585 x 904 km, 86.9° (Epoch: 27 May)

Event Time Altitude Azimuth Distance (km) Brightness Sun altitude
Rises 19:52:21 0° 4° (N) 2,851 6.9 -16.8°
Reaches altitude 10° 19:54:41 10° 12° (NNE) 1,928 5.8 -17.2°
Maximum altitude 19:58:37 38° 82° (E) 901 3.5 -17.7°
Enters shadow 19:59:09 36° 101° (E) 929 3.5 -17.8°
